Tracking 20083 objects as of 9-Dec-2019
HD Live streaming from Space Station
objects crossing your sky now

METEOR 2-17 DEB

Track METEOR 2-17 DEB now!
10-day predictions


NORAD ID: 38543
Int'l Code: 1988-005AW
Perigee: 824.2 km
Apogee: 849.1 km
Inclination: 82.5 °
Period: 101.5 minutes
Semi major axis: 7207 km
RCS: 0.011 m2 (small)
Launch date: January 30, 1988
Source: Commonwealth of Independent States (former USSR) (CIS)
Launch site: PLESETSK MISSILE AND SPACE COMPLEX (PKMTR)

Note: This is SATELLITE DEBRIS
aabbcc
Your satellite tracking list
Your tracking list is empty




NASA's NSSDC Master Catalog

Two Line Element Set (TLE):
1 38543U 88005AW  19332.47059894  .00001177  00000-0  55815-3 0  9991
2 38543  82.5341 243.7251 0017333  33.8134 326.4147 14.18772607773233
Source of the keplerian elements: AFSPC